Pagina principale
METAR-TAF:

METAR-TAF

Aeroporti :

Aeroporto militare

Ismailia, Egitto

latitudine: 30-35-54N, longitudine: 032-14-13E, altezza: 13 m

Osservazione

Il bollettino è stato emesso 3 ore e 55 minuti fa, alle 16:00 UTC
Vento 6 kt da nord/nord-est
Temperature 21°C
Umidità 38%
Pressione 1015 hPa
Visibilità 10 km o più
nessuna nube inferiore a 1500 m e nessun cumulonembo

METAR: HEIS 211600Z 02006KT CAVOK 21/06 Q1015

Ora: 21:55 (19:55 UTC)


TAF: mancante

Osservazioni e previsioni meteorologiche di più di 4000 aeroporti (messaggi METAR e TAF).

Le stazioni disponibili sono rappresentate dai dischi gialli e rossi sulla carta.

Puntare il mouse per vedere il nome della stazione.

Clicca sopra per visualizzare le osservazioni e previsioni meteorologiche.

Per cambiare la mappa : fare clic sui pulsanti verdi con una croce nera per ingrandire, il pulsante verde con un trattino per diminuire, o sulla freccia verde per le mappe adiacenti.


METAR-TAF: